GFSSW_prec_cthk_021.txt.gz
RH
23 20 18 16 15 13 11 9 12 16 20 22 15 11 10 9 9 13 19 26 29 32 32 33 31 30 27 26 22 20 18 17 18 20 20 19 20 18 19 15 22 21 17 21 19
20 19 15 14 12 11 9 10 14 19 20 20 13 10 10 7 8 11 12 15 20 24 28 28 29 25 23 21 17 14 14 13 14 14 13 14 14 14 14 13 14 19 17 16 18
18 16 14 12 11 10 9 12 17 20 21 17 12 10 9 7 9 10 7 10 14 16 21 23 22 20 19 17 14 12 11 11 12 11 10 10 10 10 11 11 9 12 15 19 18
16 14 12 12 11 10 11 16 20 20 21 14 11 9 8 8 12 9 8 8 9 10 14 16 17 14 13 12 13 11 10 10 10 10 9 9 9 9 10 10 10 10 11 12 16
15 14 12 11 10 11 15 19 21 21 18 12 10 9 8 10 10 8 7 7 7 8 9 11 10 11 11 11 11 11 10 10 10 9 9 8 9 9 9 8 8 8 9 9 10
14 12 11 10 11 14 19 21 20 20 14 11 9 8 9 10 8 9 9 8 8 10 10 11 12 12 10 12 12 11 10 8 8 8 9 9 9 9 8 8 8 8 8 7 8
12 11 10 10 14 19 20 21 20 17 11 10 10 8 9 10 8 9 9 9 9 9 11 11 11 12 14 12 13 10 10 9 8 9 10 10 8 8 9 9 8 7 6 7 7
10 10 10 12 17 19 21 22 19 13 11 10 10 9 10 8 8 8 8 9 8 9 9 10 10 11 11 11 9 11 10 9 10 10 11 11 7 6 7 9 7 6 6 6 7
9 9 11 18 20 20 21 21 17 13 11 10 10 11 12 9 10 9 9 9 9 10 10 10 11 11 12 12 10 9 11 10 8 9 9 11 9 7 8 8 7 7 6 6 6
8 10 18 19 17 17 20 19 18 15 12 10 9 11 10 11 10 10 10 10 12 12 12 11 10 11 12 12 11 9 8 7 7 7 10 9 8 7 7 8 7 7 7 8 8
10 12 16 15 14 14 14 16 19 19 17 15 12 12 12 12 10 11 11 11 10 10 10 11 10 10 10 10 9 9 10 9 9 11 12 12 13 12 11 11 12 13 13 12 12
14 15 15 14 13 13 13 16 15 17 17 16 15 15 13 12 12 11 10 10 10 11 11 13 16 16 14 16 16 16 17 16 15 14 14 13 12 10 10 11 11 12 12 12 13
16 13 11 10 10 11 13 13 13 13 15 16 15 15 14 14 14 15 15 16 17 17 18 19 19 19 17 16 17 15 16 17 15 14 13 15 13 12 11 13 14 14 16 16 17
22 18 15 15 15 15 17 14 15 17 19 21 20 20 20 19 20 19 19 20 20 20 20 18 17 16 16 17 17 16 18 17 17 18 17 14 17 14 15 17 18 20 20 18 17
23 27 23 23 24 24 21 20 19 19 24 23 22 23 22 22 21 22 20 19 19 18 16 15 16 17 18 16 18 18 18 18 19 19 22 19 21 17 18 21 22 22 20 19 18
15 22 22 21 22 20 19 18 18 20 24 24 25 24 24 23 22 22 21 20 19 18 16 17 17 18 19 19 20 20 21 21 20 25 29 20 21 18 24 24 26 28 26 26 22
12 16 20 20 22 19 19 18 21 20 22 26 26 23 22 22 22 21 23 25 25 24 20 19 22 21 24 23 26 26 21 19 19 34 28 21 20 19 23 25 27 26 26 26 24
15 15 17 18 17 17 17 18 20 24 25 25 23 20 22 22 23 19 21 24 30 26 27 30 26 26 25 25 28 25 27 25 26 19 18 21 20 16 27 30 29 26 23 21 27
17 17 16 16 15 15 18 19 28 25 22 23 20 22 26 25 17 16 28 34 29 24 28 26 26 25 19 26 24 25 25 33 38 29 29 21 19 17 23 25 28 25 25 26 31
21 17 13 14 15 16 19 26 25 22 20 20 23 21 21 23 17 16 15 28 29 26 24 27 22 18 25 21 24 27 22 21 24 25 19 12 14 16 22 23 20 21 21 22 26
23 21 14 13 16 18 22 28 27 21 19 21 20 17 22 19 15 15 19 29 28 26 23 23 21 21 26 19 20 19 20 24 28 32 31 31 22 20 22 25 26 26 26 32 53
19 17 15 16 17 18 22 22 20 17 15 18 20 20 19 17 14 18 22 26 25 25 23 24 21 19 20 19 19 19 22 34 38 34 35 41 28 23 25 29 31 36 40 51 48
16 16 14 14 14 15 18 18 17 16 16 17 19 16 16 17 15 17 20 28 25 22 25 25 25 25 20 30 34 34 36 36 40 41 41 51 38 34 33 30 28 36 45 55 50
17 18 16 16 17 16 17 17 18 19 18 17 18 17 18 17 18 17 20 22 24 23 25 27 27 25 28 26 27 31 32 32 33 44 41 44 42 39 39 38 38 35 44 58 59
19 19 19 19 17 16 16 16 18 20 18 16 20 19 18 16 18 20 22 21 21 26 27 29 31 27 30 28 28 30 34 33 36 37 45 41 46 44 39 49 38 46 51 53 55
21 20 20 20 19 17 18 19 19 17 17 18 18 22 21 22 21 21 21 24 27 28 29 34 37 36 37 34 36 37 36 37 37 42 40 34 32 41 44 43 44 50 55 56 58
20 20 22 21 20 19 21 22 20 19 21 20 20 21 24 25 25 25 27 28 29 31 37 37 40 45 46 37 38 43 39 33 33 35 45 40 39 42 48 51 44 57 60 57 62

GFSSW_prec_cthk_024.txt.gz
RH
29 25 23 21 20 17 14 12 13 11 16 23 19 13 11 11 16 21 29 38 38 38 39 40 39 37 33 33 28 25 23 23 17 18 19 17 16 14 16 17 15 15 20 20 20
22 19 18 18 17 13 9 12 13 12 18 22 16 11 10 9 10 15 19 22 27 31 34 34 34 29 28 27 25 21 21 16 14 14 14 12 10 10 10 11 13 11 15 19 17
21 18 17 16 12 10 9 12 13 15 20 21 14 10 9 8 10 12 9 12 16 20 24 26 26 26 24 24 19 18 16 11 10 11 11 10 9 9 9 10 10 10 9 15 19
19 16 13 11 11 9 9 12 15 18 20 19 11 9 8 10 13 10 6 7 9 12 17 19 22 22 22 18 16 15 11 9 9 10 10 9 9 8 8 8 7 8 7 9 13
15 13 12 11 10 9 11 14 18 20 21 14 10 9 8 12 11 9 8 8 8 9 10 11 12 14 14 12 12 11 11 11 11 10 9 9 9 10 8 7 7 7 8 8 8
13 12 11 10 10 11 14 18 20 21 19 12 10 8 10 12 9 8 8 9 8 9 10 11 12 11 10 11 12 11 10 10 8 8 9 9 9 9 7 8 8 8 8 8 8
11 11 10 10 11 15 18 20 21 20 14 11 9 8 11 13 9 9 9 9 8 8 10 10 10 10 12 11 12 12 10 9 9 9 11 11 9 8 7 9 9 9 8 8 9
10 10 10 12 15 18 20 21 21 17 11 10 9 11 11 8 8 8 9 9 9 9 9 9 9 9 10 10 9 9 10 12 12 12 12 11 11 9 8 8 8 7 7 7 7
9 9 12 17 19 20 21 21 19 13 11 10 11 12 13 9 9 8 9 9 9 9 9 9 9 11 11 12 12 11 12 12 10 10 10 10 10 8 9 9 9 9 9 9 9
9 13 17 17 18 20 21 19 15 11 10 10 10 12 10 11 9 9 9 9 10 10 12 13 11 11 12 14 17 12 11 9 9 8 10 12 13 11 11 11 12 12 13 15 16
13 15 15 15 16 18 17 18 20 16 15 15 13 12 13 11 10 10 10 11 11 10 11 12 11 12 12 12 13 13 13 14 14 15 16 16 14 10 10 12 13 15 16 17 17
17 17 16 15 16 19 21 24 24 22 19 16 15 14 13 12 13 13 11 11 10 12 12 14 18 17 18 16 16 16 17 16 14 14 15 13 13 14 12 16 17 17 17 18 17
19 17 15 13 13 15 17 15 14 16 20 17 17 16 15 15 14 14 13 15 16 17 18 19 19 18 17 16 16 16 16 18 18 16 13 17 15 16 18 18 19 19 18 18 17
19 15 12 13 15 15 16 13 14 15 19 21 19 19 18 17 20 19 18 18 18 18 18 16 16 16 17 17 16 18 17 18 18 19 21 16 25 18 22 23 23 23 24 22 20
24 20 18 19 20 21 20 18 19 20 33 27 23 22 21 22 22 22 19 18 19 18 17 15 17 18 18 17 18 19 18 19 20 22 25 23 31 25 26 29 29 29 28 24 23
20 25 23 23 24 22 20 19 19 23 27 27 24 24 24 23 22 21 21 21 20 19 18 18 19 19 21 20 22 22 24 19 17 22 33 28 31 30 31 32 29 27 24 21 21
15 20 21 21 23 19 18 18 23 25 25 27 26 22 22 22 22 20 22 25 24 22 23 21 22 24 25 23 25 27 24 26 26 38 37 25 29 31 30 29 26 24 22 22 22
16 16 17 18 18 17 16 20 26 27 27 24 22 19 23 23 23 16 21 26 27 21 23 27 27 25 24 23 25 21 26 31 33 28 32 23 26 29 27 25 25 26 26 26 25
17 15 16 15 15 15 21 24 33 26 21 21 21 22 27 24 16 16 24 30 27 23 22 24 26 24 22 23 22 25 26 26 34 32 33 25 19 30 24 26 27 27 27 27 26
19 17 13 14 15 17 23 28 25 21 19 19 24 20 20 20 16 14 14 27 26 22 21 23 22 15 20 21 21 24 25 25 25 29 27 17 17 18 21 22 24 25 25 23 22
23 24 14 13 17 22 26 29 22 19 18 20 18 16 20 18 14 13 17 27 26 22 17 19 19 18 17 16 18 18 20 21 22 25 30 36 26 22 24 25 24 22 22 24 30
20 20 15 17 19 20 24 23 19 17 14 16 17 18 17 15 14 14 19 26 24 19 17 19 20 19 16 17 19 21 21 21 36 35 39 50 32 21 25 26 28 28 30 31 36
17 16 14 16 16 18 19 19 18 17 17 17 19 15 14 16 15 15 16 25 22 18 21 22 20 25 21 27 29 30 32 35 31 39 44 56 40 26 29 28 28 31 35 39 42
19 20 17 16 16 17 17 17 18 18 17 17 17 16 17 16 16 17 19 24 23 23 24 24 24 23 30 27 27 30 30 29 33 43 41 41 39 34 34 35 33 31 37 40 43
20 19 21 20 17 16 16 17 20 21 17 16 20 18 17 17 17 19 23 22 22 29 29 32 34 31 30 29 29 31 32 31 36 39 47 39 46 43 37 32 33 39 45 48 45
23 22 21 20 18 18 19 19 19 17 17 19 18 22 19 22 22 23 24 24 27 30 31 34 37 35 37 32 34 34 33 36 37 40 44 38 33 36 38 36 39 50 56 57 57
21 22 23 21 20 20 22 21 20 18 20 20 20 20 24 26 25 25 26 27 29 32 33 36 38 43 46 35 40 44 35 32 34 38 40 38 36 36 42 50 53 61 66 72 70

GFSSW_prec_cthk_030.txt.gz
RH
35 31 28 25 24 22 23 20 13 12 20 25 19 19 24 30 34 39 43 43 43 41 42 41 40 40 37 36 33 30 29 28 21 17 15 12 12 11 10 9 9 11 11 13 15
32 28 24 22 22 22 21 20 16 11 18 23 19 15 18 24 29 34 37 38 38 37 37 35 35 33 32 31 29 26 28 21 17 15 12 10 10 9 9 8 7 7 8 11 13
28 23 20 19 20 19 19 19 16 10 18 22 17 11 13 17 22 27 28 30 31 31 32 31 30 29 27 26 24 24 22 17 15 12 11 10 9 9 9 8 7 8 8 9 12
22 20 18 17 17 15 16 17 15 11 19 22 15 10 10 13 15 16 17 20 21 23 24 24 24 24 23 22 21 19 16 14 11 11 10 10 9 9 8 8 8 8 9 8 10
19 18 17 16 15 13 15 16 15 13 19 21 12 9 10 12 11 9 8 8 10 11 12 14 14 14 13 13 12 11 11 11 10 10 9 8 8 10 9 9 9 9 10 13 11
18 17 16 15 13 13 15 16 13 16 20 18 10 9 11 11 9 8 8 8 8 9 9 9 10 11 10 10 11 11 10 10 8 9 10 10 10 11 9 9 8 10 11 12 12
16 15 14 13 12 13 17 16 15 18 19 13 9 10 11 11 10 8 8 8 8 8 9 9 9 8 10 10 10 10 9 9 10 11 10 10 10 10 9 9 10 12 12 13 13
12 11 10 11 13 18 19 16 16 18 17 10 10 10 10 9 9 8 8 8 9 8 8 8 8 8 8 10 10 10 11 12 10 10 10 10 12 11 13 13 14 15 15 14 14
10 11 12 14 18 18 17 16 18 17 11 11 11 11 11 9 9 8 8 8 8 9 9 10 10 11 11 14 13 13 12 12 11 11 13 14 15 16 15 15 16 16 16 16 16
13 14 16 17 18 18 17 17 17 12 11 10 10 10 10 11 9 9 8 8 9 10 11 12 12 13 13 14 15 14 14 14 14 14 14 13 16 16 14 14 15 15 17 17 18
14 15 15 16 17 17 18 18 16 13 13 13 12 12 13 11 10 11 11 10 11 12 13 13 12 14 15 15 16 17 17 17 16 15 15 16 19 17 17 18 19 19 19 19 19
15 15 16 16 17 20 21 20 17 14 14 14 13 13 12 11 12 13 13 13 13 12 12 16 19 18 18 18 18 17 17 18 16 16 16 16 21 20 20 20 19 20 20 20 20
16 16 17 17 18 21 20 21 19 18 17 18 18 17 16 16 16 15 13 12 14 17 18 19 17 16 16 18 18 17 17 19 20 18 17 19 25 24 22 20 20 21 22 22 23
15 15 17 19 22 22 21 21 22 23 25 22 20 19 17 15 16 18 19 19 19 19 18 17 16 17 19 18 19 20 20 21 22 24 25 22 30 30 24 22 21 21 22 23 23
14 14 16 18 18 22 20 18 17 17 29 21 22 23 22 21 23 23 22 20 18 19 18 17 17 18 20 21 22 23 22 22 22 25 26 26 34 32 24 24 23 23 24 24 25
17 17 18 18 18 17 16 16 16 20 25 29 25 24 24 24 23 22 21 18 18 19 20 21 20 22 22 23 24 21 20 18 23 27 32 25 31 35 27 24 24 25 26 26 26
24 22 23 23 25 22 20 20 21 32 29 31 28 23 24 24 20 18 21 21 22 16 22 21 23 22 21 22 21 20 22 24 23 32 28 25 28 29 25 26 25 26 27 26 27
21 21 21 20 21 20 18 21 27 29 27 26 23 20 23 22 22 20 25 29 21 20 24 26 22 20 18 20 19 20 22 26 20 30 32 25 25 23 22 24 25 26 26 27 27
15 14 15 16 17 18 20 29 31 26 25 23 21 23 27 23 18 21 26 27 24 20 20 21 19 18 19 19 16 18 22 22 26 29 34 29 23 22 23 24 26 27 28 28 28
16 15 14 16 16 19 24 28 24 23 21 21 24 22 26 21 17 15 24 25 24 20 16 18 17 14 16 17 17 18 21 28 28 26 29 26 26 27 24 27 29 30 32 32 31
23 18 16 20 22 23 28 26 23 21 20 21 21 20 20 19 15 16 25 25 24 18 17 16 18 15 16 18 19 20 22 26 27 30 30 34 26 21 25 27 28 27 28 25 23
22 17 17 18 21 25 27 26 20 20 19 18 19 19 19 17 15 17 24 24 23 17 19 19 22 25 19 20 21 22 23 25 33 27 38 48 36 21 23 23 25 25 23 21 24
17 18 18 19 20 23 22 22 20 18 18 18 17 17 15 15 15 17 23 23 19 19 19 20 22 25 19 28 26 27 27 29 32 42 45 49 29 21 20 20 22 23 24 28 32
21 21 17 18 19 20 19 19 18 18 18 18 17 16 16 16 16 18 23 24 23 22 24 24 27 22 27 23 27 30 27 29 32 49 36 34 26 20 23 25 25 27 33 31 30
21 23 23 21 20 20 19 21 21 20 19 18 18 18 17 17 19 20 21 24 26 27 29 30 33 32 30 30 31 31 33 32 36 35 43 26 33 27 27 29 30 30 28 26 28
21 19 20 21 20 21 22 22 23 21 20 20 20 21 19 19 19 22 22 23 24 31 33 34 33 36 37 32 34 36 34 34 35 36 36 35 30 29 28 31 30 29 30 31 32
27 26 24 23 22 22 24 22 22 21 22 22 22 23 22 21 23 24 24 25 25 30 33 34 38 42 46 39 39 38 32 33 32 32 33 35 28 28 30 31 29 32 32 35 41

GFSSW_prec_cthk_036.txt.gz
RH
48 40 36 29 31 33 26 22 13 16 29 24 30 36 36 36 41 43 43 43 44 42 45 41 42 42 44 43 41 39 33 31 27 23 18 16 14 12 11 11 10 10 11 11 10
42 38 32 30 30 30 25 21 12 17 28 23 29 35 33 38 44 41 46 43 50 40 40 45 42 40 40 39 38 33 29 24 22 20 18 15 13 12 11 11 10 10 10 10 9
36 31 29 28 28 28 24 18 12 18 28 22 27 31 36 35 46 43 43 44 41 40 39 40 40 38 37 35 32 30 25 22 20 17 15 13 12 11 11 12 13 13 11 11 11
31 28 28 27 26 25 21 15 13 21 27 21 24 27 31 36 39 42 41 39 38 38 38 37 36 35 33 29 27 25 23 19 15 13 11 10 10 14 13 16 15 14 13 12 12
28 28 28 23 23 21 17 14 14 22 26 22 20 21 26 32 36 35 36 35 34 34 33 32 31 28 25 22 18 16 14 12 10 9 11 12 13 15 16 16 15 14 13 13 13
24 27 22 21 22 22 20 13 15 22 25 23 15 16 21 24 26 23 27 27 27 26 24 22 19 17 13 12 11 11 11 10 9 10 12 12 14 14 17 16 15 14 14 14 14
25 23 22 22 24 25 21 15 15 19 24 21 13 13 16 18 17 15 14 14 11 11 10 10 9 8 9 10 11 11 11 10 11 10 12 11 13 17 18 17 17 17 17 17 17
21 21 22 21 24 25 22 17 14 20 23 18 12 12 11 11 11 9 8 8 9 9 9 9 9 9 9 10 11 12 12 12 11 11 12 12 16 20 20 18 18 17 16 15 15
20 20 20 19 22 22 21 17 14 20 22 15 12 11 10 9 10 9 9 9 9 10 10 11 11 11 11 12 13 14 12 11 11 14 16 17 20 19 18 17 17 16 16 16 16
17 17 17 17 18 20 19 17 15 20 20 13 12 11 10 11 10 10 10 10 10 10 10 11 11 13 14 14 11 12 14 15 17 18 18 17 18 18 18 17 17 17 17 18 18
13 13 13 14 17 19 18 15 19 21 15 13 12 12 12 11 11 12 12 11 10 10 12 13 14 14 13 14 17 18 19 18 17 17 19 19 19 18 18 18 19 19 19 19 19
13 14 16 18 20 19 16 18 20 18 15 14 14 13 13 12 12 13 12 12 12 13 14 15 15 14 17 20 19 18 18 18 18 20 21 21 20 19 18 19 19 19 19 19 19
18 19 20 19 19 17 18 21 17 15 16 16 15 14 14 14 15 16 15 14 15 15 16 16 17 20 18 19 19 18 19 20 22 23 23 23 23 19 17 18 18 18 19 20 20
19 19 18 20 21 21 21 19 16 16 18 18 17 18 17 17 18 19 18 17 17 17 18 20 19 18 19 19 20 21 21 23 23 25 24 23 26 23 17 17 17 18 19 20 20
18 19 20 20 21 19 19 19 20 20 19 22 21 21 21 21 21 21 20 18 20 22 21 17 18 20 20 20 23 24 22 21 21 23 24 26 33 26 20 19 19 20 20 20 20
18 19 19 21 20 20 19 20 21 22 20 25 24 24 22 21 20 21 21 20 19 19 20 20 21 20 21 22 23 20 18 19 25 27 27 24 30 28 23 21 21 21 20 21 21
17 21 23 23 23 22 22 23 24 22 23 25 26 26 26 24 24 24 24 20 20 20 20 20 22 20 21 20 18 18 16 16 16 26 25 28 30 25 22 21 21 21 22 22 21
20 20 21 21 21 19 19 20 18 22 24 26 28 27 26 24 24 26 26 26 21 20 23 20 20 20 19 18 19 20 20 22 16 19 24 27 27 22 20 20 21 21 21 21 21
27 28 27 26 26 25 24 26 23 27 25 27 27 28 28 23 22 25 29 27 23 19 15 16 13 16 17 18 17 19 22 24 25 29 30 25 23 20 20 21 21 21 21 22 22
20 18 18 20 21 23 25 27 24 23 26 26 28 23 30 26 22 22 25 25 22 17 16 16 12 15 16 18 18 20 21 24 27 23 24 22 23 22 22 21 22 22 23 23 23
20 20 22 21 21 22 26 25 21 23 25 24 24 25 25 24 20 20 21 23 23 18 18 17 15 14 16 19 20 19 22 25 27 29 28 31 23 19 20 21 23 23 24 25 23
24 19 20 22 24 26 27 25 26 26 26 24 24 23 21 19 16 19 22 23 22 18 17 18 19 18 15 17 20 20 20 23 32 25 35 43 33 22 22 22 23 24 25 25 25
19 20 21 23 23 27 26 26 25 23 22 20 18 18 18 18 16 20 23 24 21 19 19 19 19 21 17 22 24 24 25 28 33 38 42 42 27 24 25 24 24 25 27 26 26
20 20 20 20 22 23 23 23 21 20 19 20 19 19 18 18 17 20 24 24 21 22 23 22 22 21 28 22 26 28 28 30 32 48 38 35 24 25 26 25 25 27 27 28 27
20 21 20 22 22 22 23 22 20 20 20 21 21 20 19 19 20 21 25 27 26 27 26 25 28 29 29 28 27 28 28 33 36 36 35 24 29 26 25 28 29 30 31 30 29
28 25 22 21 21 21 22 23 23 23 21 21 21 21 20 19 19 22 24 26 25 28 31 31 30 36 33 34 35 37 35 36 35 36 38 36 36 30 31 32 34 34 32 32 30
32 30 29 30 28 27 26 25 25 24 23 23 23 24 23 22 22 23 23 24 24 28 32 33 37 41 37 39 36 31 30 36 37 37 37 40 33 34 35 37 37 35 36 33 29

GFSSW_prec_cthk_042.txt.gz
RH
52 47 41 38 31 29 32 26 22 19 25 29 32 36 36 35 35 39 43 44 44 43 41 40 39 38 38 38 38 39 39 32 27 23 23 20 18 16 14 13 13 13 14 14 15
51 47 42 39 31 29 32 25 21 19 26 30 33 37 36 36 37 39 40 43 42 41 40 40 41 39 38 40 42 39 37 31 25 24 24 21 18 16 14 13 14 14 14 16 17
48 47 41 35 29 30 31 23 21 18 28 31 34 38 34 37 41 39 41 40 43 41 39 40 40 39 40 41 42 38 35 30 26 24 20 17 16 15 14 15 15 15 14 16 18
45 43 37 32 27 32 26 22 20 19 30 31 35 37 41 37 45 40 38 37 39 41 41 40 41 40 39 37 37 35 33 28 24 19 17 15 14 14 14 15 15 15 15 15 16
40 37 31 27 27 32 24 21 17 22 30 30 35 33 34 35 40 52 41 42 38 41 41 41 40 39 36 35 33 30 26 21 16 14 13 13 14 15 16 15 15 15 15 15 16
33 30 26 25 30 28 22 20 16 26 28 29 32 31 33 34 42 47 38 50 41 58 44 39 39 35 32 31 26 21 14 12 12 13 13 14 15 15 15 15 15 16 17 17 17
27 25 24 27 31 24 22 18 18 29 27 27 30 32 33 31 35 48 40 40 37 42 35 33 31 29 24 18 12 10 10 11 12 13 15 15 15 16 15 16 17 18 17 16 16
22 24 27 31 26 23 20 16 21 30 26 25 27 26 35 33 33 44 37 28 28 29 28 25 20 13 10 10 10 10 11 13 13 14 14 13 14 17 18 18 17 17 17 16 16
28 29 30 26 23 20 18 16 23 28 25 22 22 22 24 25 28 26 25 21 16 17 14 11 10 11 11 10 11 11 10 12 13 13 14 14 17 19 19 17 17 17 17 17 18
27 27 23 20 19 18 17 19 24 27 25 20 16 17 19 19 19 18 14 11 10 10 10 11 11 11 11 11 11 11 11 12 13 16 16 18 17 17 17 18 18 18 18 18 18
28 28 25 20 19 16 17 22 26 26 25 17 12 12 13 14 13 12 11 10 10 11 11 12 11 12 12 12 13 14 14 16 17 16 16 16 17 18 19 19 19 19 18 18 18
26 27 26 24 19 16 18 22 22 24 23 15 13 12 12 12 13 12 11 12 12 12 12 12 12 13 14 15 15 16 17 16 16 17 18 19 18 19 18 18 18 18 18 18 18
23 23 24 24 20 17 18 21 21 22 18 15 14 13 13 13 14 15 14 13 13 14 14 14 16 16 16 16 17 18 16 16 18 21 20 18 17 17 18 18 18 18 18 19 20
18 20 22 23 21 19 20 21 21 20 15 17 16 16 15 15 16 17 16 16 16 16 16 17 17 17 18 18 18 18 18 21 22 21 19 17 11 19 17 19 18 18 18 18 19
16 18 23 24 22 20 21 21 19 18 16 18 18 18 18 18 18 19 18 19 19 20 19 18 18 19 19 19 20 22 22 22 20 19 19 21 19 16 18 17 17 17 17 18 19
18 21 24 24 21 20 22 21 18 17 20 24 23 22 21 21 21 21 20 20 20 20 20 20 20 19 20 21 21 22 20 19 19 20 21 18 20 14 17 16 16 17 17 18 19
21 22 22 21 22 19 19 19 19 19 23 26 26 24 23 24 24 23 22 19 19 20 20 21 21 20 21 21 22 19 15 15 19 23 18 22 23 15 18 17 16 16 17 18 19
21 23 24 23 21 20 20 21 22 22 25 27 26 25 25 26 26 26 25 22 20 18 17 19 23 22 21 21 17 17 17 15 17 15 15 24 20 16 16 17 17 17 18 19 20
22 23 24 25 24 24 25 23 23 26 27 24 24 26 28 25 25 24 24 24 21 19 18 17 17 19 19 18 17 19 18 21 18 19 18 14 15 15 16 17 17 18 19 20 21
25 24 24 24 25 24 24 22 22 21 21 22 25 26 27 28 24 24 24 26 23 19 18 16 13 15 16 17 18 19 20 20 20 19 18 15 16 14 17 17 18 19 20 22 24
23 22 22 24 26 28 26 26 25 24 24 24 28 28 25 26 25 24 23 25 25 20 18 16 13 14 16 18 19 21 20 21 21 20 19 19 17 15 17 18 19 20 22 24 27
23 23 23 25 24 24 23 23 22 23 24 24 25 26 25 25 23 22 22 23 23 20 18 18 16 15 15 17 20 20 19 20 21 23 23 27 22 18 20 21 22 23 26 28 31
23 22 23 26 25 27 29 29 28 28 29 28 27 25 24 22 21 20 22 24 22 21 20 19 18 19 20 23 23 22 23 22 25 26 27 25 21 23 24 25 26 28 29 33 37
20 22 24 26 26 25 25 25 25 24 23 22 20 19 20 20 21 20 23 25 24 24 24 22 22 21 22 24 22 23 25 25 23 30 25 25 23 25 29 29 31 33 36 39 43
28 27 22 21 22 24 24 24 23 23 23 23 23 22 21 21 21 21 24 27 26 29 26 25 24 23 22 22 23 23 23 25 27 26 28 26 29 29 31 32 35 37 41 45 49
32 31 29 29 27 27 26 24 22 22 22 22 21 21 21 20 20 21 23 25 24 30 29 28 27 29 25 28 30 31 28 31 31 32 32 33 32 37 35 38 39 43 48 52 51
32 32 32 33 32 32 32 32 31 30 30 28 27 29 29 28 26 27 27 27 28 29 31 31 34 34 32 33 32 31 31 32 34 37 37 37 36 39 38 40 45 50 53 53 50

GFSSW_prec_cthk_045.txt.gz
RH
54 49 44 38 33 29 26 28 22 19 22 25 31 34 35 34 34 39 43 47 48 49 47 46 43 41 40 40 39 38 42 41 32 26 26 21 20 19 17 17 14 14 14 14 15
52 53 47 41 37 31 26 28 22 18 24 27 32 35 35 34 35 38 41 44 46 46 46 46 45 41 41 41 40 40 41 34 33 27 26 23 20 17 16 17 16 14 15 16 19
50 54 48 41 35 29 25 28 21 19 25 29 33 36 36 36 39 39 39 42 44 43 43 43 44 42 41 40 40 40 38 36 34 29 24 21 20 17 16 17 14 14 15 16 17
51 48 47 40 34 26 26 28 21 21 27 30 33 37 35 36 37 38 38 40 42 41 42 42 42 42 41 41 39 41 38 34 31 26 21 19 16 15 14 16 14 14 14 14 15
44 44 42 35 29 24 27 26 20 23 30 31 34 38 38 37 40 39 38 40 39 40 41 43 42 41 42 40 37 35 33 28 24 19 16 14 13 13 14 14 14 14 15 15 16
41 39 36 30 25 25 28 24 20 26 30 30 34 34 35 36 38 41 38 39 38 42 41 39 43 42 40 38 35 31 25 20 16 13 12 13 14 14 14 14 14 14 16 17 16
35 32 30 25 23 27 27 23 22 28 29 30 31 34 40 42 39 41 45 40 40 39 45 42 42 37 35 33 27 19 15 12 12 13 13 13 14 14 13 13 14 16 16 15 15
29 27 24 22 28 28 25 21 25 31 28 29 31 30 37 42 38 43 43 40 52 46 47 44 33 30 27 20 13 11 10 13 16 15 14 13 13 16 14 15 16 16 15 15 15
23 22 25 30 28 27 23 22 28 31 27 28 28 30 29 30 33 37 49 42 34 30 26 27 24 18 12 11 11 12 10 15 18 14 15 13 14 17 17 16 16 15 16 16 16
27 31 31 28 28 25 21 24 30 31 26 27 26 25 30 35 31 32 38 30 25 18 16 15 12 12 11 11 12 15 14 12 13 17 15 16 16 18 16 15 17 17 16 16 16
31 30 29 29 25 21 21 27 33 31 26 23 22 22 22 22 22 24 20 16 13 12 13 12 13 12 13 13 11 10 12 12 14 17 16 14 15 16 18 18 18 17 16 16 16
25 25 25 22 19 18 23 29 29 29 25 19 15 15 16 16 18 17 13 12 12 13 12 12 12 15 12 13 13 14 13 16 17 17 16 16 18 18 18 17 17 17 16 16 16
27 24 21 18 18 18 25 27 25 26 26 18 14 14 14 13 15 15 13 13 13 13 13 14 18 15 14 15 16 16 17 16 16 19 19 20 15 15 17 17 17 18 17 17 18
27 26 21 17 18 21 26 23 24 25 22 17 16 15 14 14 16 14 14 15 15 16 16 16 17 16 16 17 17 18 18 17 19 21 19 20 12 17 17 18 17 18 17 17 18
27 26 22 22 22 22 24 22 24 23 20 19 17 16 16 16 19 18 16 17 18 18 18 20 19 18 19 18 18 19 20 20 22 21 17 16 20 18 18 18 17 17 17 18 18
24 26 24 24 20 20 24 22 21 19 26 22 20 18 18 19 19 18 18 18 19 20 20 21 20 18 20 20 19 20 20 20 20 17 20 17 19 17 19 16 15 16 17 17 17
22 25 26 22 25 20 23 23 22 23 24 25 25 24 22 23 22 23 22 20 21 21 21 20 20 18 18 20 21 22 21 18 25 29 24 22 19 15 18 15 15 16 16 16 17
23 24 24 22 22 22 22 22 25 23 21 25 25 24 24 23 24 26 25 22 20 19 18 19 23 22 21 22 22 20 18 17 20 19 19 22 19 18 16 15 15 16 16 17 19
22 23 23 23 22 21 23 22 24 23 25 25 25 25 25 24 22 24 22 22 21 18 19 18 19 20 20 21 20 21 17 21 17 17 19 15 17 16 16 15 16 17 18 20 21
24 24 24 24 23 23 25 25 26 25 25 25 25 22 25 26 24 24 23 26 24 20 20 19 17 18 18 18 17 17 20 21 23 21 21 16 18 19 19 18 18 19 20 21 23
28 26 24 26 26 27 26 26 23 21 23 23 23 26 25 26 24 25 24 27 25 21 19 18 15 17 15 16 17 20 19 19 20 20 21 21 19 20 19 20 21 22 22 24 27
23 23 20 21 26 28 28 26 23 23 23 24 24 25 25 25 23 24 24 25 23 21 19 18 17 16 16 18 18 19 20 20 24 24 24 25 22 18 20 22 23 24 25 28 32
29 26 25 26 30 26 25 24 24 23 24 26 27 27 26 26 25 23 24 24 22 21 21 20 19 21 22 25 24 20 20 21 21 26 26 27 22 22 26 29 29 29 30 33 32
23 26 26 28 29 28 27 28 28 27 27 26 23 21 20 21 20 21 23 24 23 24 23 23 22 22 24 25 25 23 23 22 23 25 24 24 26 28 34 35 34 32 32 34 38
27 26 22 22 23 25 25 25 25 24 24 23 23 23 23 22 22 22 24 26 26 28 27 26 25 23 23 21 22 22 22 23 27 26 29 26 31 33 35 36 35 34 37 41 44
33 31 29 28 27 25 25 22 20 20 21 21 21 21 20 20 21 22 23 24 24 29 30 29 28 28 26 26 30 30 30 31 30 31 30 33 35 37 36 34 34 36 38 41 44
33 32 33 32 31 31 31 31 29 30 30 29 27 29 29 30 29 28 29 29 29 31 34 34 34 38 36 34 34 33 32 30 28 27 29 31 30 30 30 30 33 38 40 41 43

GFSSW_prec_cthk_048.txt.gz
RH
47 43 42 35 32 30 26 24 24 21 17 24 25 30 33 33 34 42 51 55 56 54 51 48 47 46 45 44 41 40 45 49 37 32 29 24 22 24 19 19 16 16 15 17 17
51 53 47 41 37 31 27 25 24 21 18 26 26 31 34 33 35 41 46 50 52 52 51 50 48 46 46 45 43 42 46 42 36 35 31 27 22 21 18 20 18 16 16 17 18
59 53 52 46 40 34 29 24 24 21 19 29 27 32 34 33 36 37 42 46 49 49 48 48 47 47 45 43 43 41 42 39 39 37 32 26 25 19 19 19 16 14 14 15 16
54 56 52 47 40 34 28 23 24 20 23 31 29 33 34 35 37 40 39 41 45 45 47 47 45 44 44 41 42 42 39 39 40 34 28 24 22 17 16 16 14 13 14 14 14
56 48 49 46 38 32 25 23 22 20 29 32 31 33 34 36 36 37 36 39 41 43 44 43 42 41 42 38 39 38 35 36 34 27 22 18 16 14 12 13 13 13 13 13 14
47 45 45 40 33 28 23 23 21 22 36 32 31 34 35 39 35 39 37 36 38 40 42 40 42 41 39 39 39 37 33 28 23 19 16 14 13 12 13 12 13 13 13 14 15
43 42 39 34 29 24 23 23 23 29 38 32 32 33 37 43 37 39 36 36 40 38 41 40 38 38 40 38 36 31 24 19 16 14 14 12 14 14 14 13 12 13 14 15 14
37 35 32 29 25 22 25 23 27 39 35 31 33 35 37 38 35 36 38 38 38 37 38 37 41 38 38 34 25 19 14 16 15 16 16 14 14 15 14 14 14 15 15 14 14
30 29 27 23 23 27 26 28 32 41 33 32 33 34 38 41 39 40 40 42 39 40 43 40 44 43 28 22 16 14 15 15 19 18 17 16 15 16 16 16 16 15 15 15 15
25 23 22 25 30 27 28 30 37 38 34 32 32 33 30 35 37 37 41 41 44 40 40 31 27 24 17 15 16 17 18 17 16 18 16 16 16 17 17 16 16 16 16 16 15
24 27 31 32 28 29 30 34 40 35 32 29 25 28 28 29 29 32 33 40 36 26 20 18 16 15 15 15 14 13 11 12 12 17 17 18 15 14 17 18 17 17 16 16 16
32 31 29 28 29 29 32 37 38 33 29 27 26 24 26 27 28 25 24 28 22 16 15 14 14 14 14 15 13 13 14 14 16 18 18 16 15 16 18 18 18 17 16 16 16
29 28 28 28 23 23 32 37 33 29 25 22 20 19 19 17 20 22 17 16 14 14 14 15 18 18 16 15 15 16 18 17 18 19 17 19 21 18 18 18 18 17 18 17 17
22 22 22 18 18 26 33 32 31 28 26 20 15 14 13 15 16 14 13 14 14 14 16 15 16 16 16 16 16 19 19 19 19 20 24 21 24 15 17 19 18 17 18 18 17
21 17 17 23 23 28 28 28 27 28 28 22 17 17 15 15 19 18 14 15 16 18 17 18 18 19 20 20 19 21 21 20 20 22 23 18 23 19 20 23 20 17 17 17 17
24 21 19 23 24 27 26 25 26 24 34 26 19 16 16 17 17 16 16 16 16 17 18 19 20 20 20 21 20 19 18 20 23 24 26 19 22 23 23 20 19 17 17 17 18
26 25 24 20 26 23 24 24 27 27 28 26 24 21 19 22 20 20 20 20 20 22 22 22 22 20 18 19 20 20 23 28 34 37 34 25 26 21 19 18 17 16 17 17 18
26 27 24 22 22 22 24 25 34 27 28 25 24 24 25 24 23 23 24 24 22 20 20 21 26 24 23 22 24 26 24 27 27 27 25 24 25 19 20 18 15 17 18 18 17
23 25 23 23 22 23 25 27 30 29 26 24 25 26 26 24 23 23 23 24 22 19 21 20 23 22 21 20 21 23 21 20 20 16 20 20 22 22 21 20 18 18 18 18 19
24 24 23 23 22 21 26 27 26 24 24 25 27 27 26 27 22 23 25 27 24 21 21 21 20 20 21 19 20 20 20 23 24 27 27 21 22 27 24 23 23 22 21 21 23
23 25 24 24 24 25 26 28 27 27 25 24 24 25 22 24 23 24 24 29 26 22 20 19 18 19 17 18 19 21 18 19 21 23 26 28 25 22 22 22 23 22 23 25 26
28 25 22 26 27 27 28 27 25 23 20 21 21 23 24 25 25 25 24 28 24 22 21 20 20 20 18 19 19 20 21 22 28 28 32 35 30 21 23 25 27 28 28 30 33
29 25 23 23 27 26 26 25 22 23 23 25 26 26 25 26 26 24 25 26 23 22 23 23 21 25 24 26 28 24 22 23 23 27 32 35 26 24 30 31 31 30 31 32 33
25 27 25 24 30 30 31 29 29 29 30 30 28 27 24 24 23 24 25 25 23 24 23 23 25 25 31 27 26 24 24 22 24 35 28 31 29 32 34 36 35 36 38 36 34
25 26 24 26 26 25 26 27 26 24 23 23 22 22 22 23 23 23 25 28 25 27 25 25 27 26 25 25 24 24 26 27 29 31 34 32 35 33 33 32 28 26 26 26 28
35 32 28 28 25 22 23 21 21 21 22 22 22 22 20 21 23 25 25 26 27 33 31 31 32 31 31 29 30 31 32 33 33 33 32 28 25 26 24 23 22 23 26 28 31
36 33 34 33 31 32 32 30 28 28 28 28 28 28 28 31 30 30 29 30 31 32 35 35 37 39 42 34 35 34 30 27 24 23 22 23 22 22 22 23 24 26 28 29 30